[[{"header":{"parameterUnit":"m.s-1","parameterCategory":2,"la1":30.2991,"la2":30.254,"lo1":-89.0895,"lo2":-89.0444,"dy":0.0017,"dx":0.0017,"nx":28,"ny":28,"refTime":"2023-10-18T03:00:00:Z","depth":"0","parameterNumber":2,"parameterNumberName":"U-component_of_CURRENTS"},"data":[0,0,0,0,0,0,0,0,0,0,0,0,0,0,0,0,0,0,0,0,0,0,0,0,0,0,0,0,0,0,0,0,0,0,0,0,0,0,0,0,0,0,0,0,0,0,0,0,0,0,0,0,0,0,0,0,0,0,-0.1301,-0.13,0,-0.1185,-0.1184,-0.1183,-0.1186,-0.1188,-0.1189,-0.1191,-0.1043,-0.1038,-0.1033,0,0,0,0,0,0,0,0,0,0,0,0,0,-0.1223,-0.1226,-0.1302,-0.13,-0.1299,-0.1185,-0.1184,-0.1182,-0.1186,-0.1188,-0.119,-0.1192,-0.1045,-0.1039,-0.1032,0,0,0,0,0,0,0,0,0,0,0,0,0,-0.1197,-0.1227,-0.1302,-0.1287,-0.1285,-0.1186,-0.1184,-0.1182,-0.1185,-0.1188,-0.119,-0.1193,-0.1047,-0.1039,-0.1031,-0.0932,0,0,-0.1006,-0.1003,0,0,0,0,0,0,0,0,-0.1199,-0.12,-0.1291,-0.1288,-0.1285,-0.1203,-0.1102,-0.1097,-0.1185,-0.1223,-0.1191,-0.1194,-0.1092,-0.108,-0.1053,-0.0925,-0.0919,-0.1006,-0.1001,-0.0997,-0.0995,0,0,0,0,0,0,0,-0.1201,-0.1203,-0.1255,-0.1289,-0.1285,-0.1182,-0.1184,-0.1099,-0.1144,-0.122,-0.122,-0.1206,-0.1091,-0.1061,-0.105,-0.0916,-0.1006,-0.0999,-0.0993,-0.099,-0.0861,-0.0862,0,0,0,0,0,0,-0.123,-0.1207,-0.1259,-0.1252,-0.1247,-0.1183,-0.1184,-0.1227,-0.1146,-0.1136,-0.1204,-0.1207,-0.1074,-0.1059,-0.1044,-0.1081,-0.0997,-0.0989,-0.0985,-0.0859,-0.0861,-0.0863,0,0,0,0,0,0,-0.123,-0.1238,-0.1264,-0.1223,-0.1219,-0.1184,-0.1229,-0.1223,-0.121,-0.1135,-0.1125,-0.12,-0.1075,-0.1056,-0.1008,-0.1069,-0.0986,-0.0978,-0.0858,-0.086,-0.0862,-0.1051,0,0,0,0,0,0,-0.1229,-0.124,-0.1265,-0.1227,-0.1223,-0.1234,-0.1226,-0.1219,-0.1197,-0.12,-0.1126,-0.1115,-0.1076,-0.1021,-0.1,-0.1057,-0.0972,-0.0856,-0.0859,-0.0861,-0.1043,-0.106,-0.1074,0,0,0,0,0,-0.1227,-0.1246,-0.1268,-0.1272,-0.1266,-0.1234,-0.1222,-0.1201,-0.1195,-0.1196,-0.1158,-0.1118,-0.1025,-0.1014,-0.099,-0.1046,-0.0854,-0.0858,-0.0861,-0.1036,-0.1056,-0.1073,0,0,0,0,0,0,-0.1206,-0.1247,-0.1271,-0.13,-0.1287,-0.1236,-0.1212,-0.1201,-0.1166,-0.1166,-0.1107,-0.1092,-0.1072,-0.1019,-0.1008,-0.1017,-0.0943,-0.0941,-0.1085,-0.1102,-0.1117,-0.1147,-0.0965,0,0,0,0,0,-0.1221,-0.1263,-0.1269,-0.1289,-0.1285,-0.1251,-0.1228,-0.1223,-0.1187,-0.1174,-0.113,-0.1088,-0.1058,-0.1051,-0.099,-0.0977,-0.0961,-0.1005,-0.102,-0.1034,-0.1042,-0.1086,-0.1107,-0.0873,-0.0873,-0.0873,0,0,-0.1211,-0.1239,-0.1259,-0.1287,-0.1267,-0.1277,-0.1244,-0.1221,-0.1247,-0.1157,-0.1161,-0.1109,-0.1056,-0.1061,-0.1052,-0.1035,-0.1093,-0.1038,-0.1051,-0.105,-0.1092,-0.1115,-0.1136,-0.0876,-0.0875,-0.0875,0,0,-0.1192,-0.1247,-0.1267,-0.1277,-0.1272,-0.1272,-0.1277,-0.1248,-0.126,-0.1244,-0.121,-0.1213,-0.1129,-0.1153,-0.1143,-0.1197,-0.115,-0.1171,-0.1301,-0.1345,-0.1366,-0.1384,-0.1411,-0.1429,-0.121,-0.121,-0.1211,0,-0.1175,-0.123,-0.1254,-0.1274,-0.129,-0.1286,-0.1304,-0.1313,-0.128,-0.1304,-0.1271,-0.1234,-0.1192,-0.1254,-0.1292,-0.1239,-0.1236,-0.1244,-0.1371,-0.1388,-0.1403,-0.1426,-0.1444,-0.122,-0.1219,-0.1218,-0.1217,0,-0.1183,-0.1223,-0.1225,-0.1293,-0.1312,-0.1319,-0.136,-0.1389,-0.1398,-0.141,-0.1443,-0.14,-0.1392,-0.1402,-0.1361,-0.1462,-0.1415,-0.1367,-0.1337,-0.1439,-0.1455,-0.1471,-0.1233,-0.123,-0.1227,-0.1225,0,0,-0.1168,-0.1223,-0.123,-0.1267,-0.1332,-0.1347,-0.1429,-0.1499,-0.1563,-0.1561,-0.1633,-0.1631,-0.1608,-0.1596,-0.1567,-0.1634,-0.175,-0.1561,-0.1559,-0.161,-0.1839,-0.1712,-0.1715,-0.1726,-0.173,-0.1732,-0.1815,0,-0.1169,-0.1204,-0.1255,-0.1315,-0.1339,-0.1416,-0.1498,-0.1573,-0.1623,-0.169,-0.1721,-0.1733,-0.1686,-0.1683,-0.1751,-0.1714,-0.1795,-0.1731,-0.171,-0.171,-0.1604,-0.1731,-0.1633,-0.1689,-0.183,-0.1832,-0.1834,0,-0.1176,-0.1206,-0.124,-0.1351,-0.1375,-0.1418,-0.1574,-0.1639,-0.1763,-0.1806,-0.1866,-0.1853,-0.1932,-0.1866,-0.1937,-0.189,-0.1886,-0.1884,-0.1886,-0.1708,-0.1612,-0.1602,-0.1711,-0.1678,-0.1857,-0.1855,-0.1854,0,-0.114,-0.1216,-0.1245,-0.1277,-0.1388,-0.144,-0.1511,-0.165,-0.1721,-0.1848,-0.1899,-0.1984,-0.1991,-0.2028,-0.1995,-0.1973,-0.2061,-0.2024,-0.1929,-0.1919,-0.1799,-0.1771,-0.1888,-0.2114,-0.2114,-0.2114,-0.2113,0,-0.1131,-0.1157,-0.1219,-0.1227,-0.1303,-0.1399,-0.1496,-0.1598,-0.1729,-0.1821,-0.1911,-0.198,-0.2029,-0.2067,-0.2054,-0.2022,-0.2105,-0.1975,-0.1945,-0.1858,-0.1837,-0.1765,-0.177,-0.2117,-0.2116,-0.2115,-0.2115,0,-0.1058,-0.11,-0.113,-0.1228,-0.1261,-0.13,-0.1436,-0.1522,-0.1654,-0.1774,-0.1807,-0.1967,-0.2013,-0.2049,-0.2101,-0.2064,-0.202,-0.2037,-0.1916,-0.187,-0.1717,-0.1734,-0.1803,-0.1753,-0.1965,-0.1962,-0.196,0,-0.1018,-0.1008,-0.1082,-0.1105,-0.1128,-0.1205,-0.1279,-0.1441,-0.1536,-0.1757,-0.181,-0.1908,-0.1965,-0.1993,-0.196,-0.1941,-0.1939,-0.184,-0.1785,-0.1723,-0.1724,-0.174,-0.1695,-0.1722,-0.1718,-0.1715,-0.1712,0,-0.0918,-0.0926,-0.0949,-0.0985,-0.1037,-0.1122,-0.1226,-0.1294,-0.151,-0.163,-0.1779,-0.1832,-0.1877,-0.1815,-0.1776,-0.1752,-0.177,-0.177,-0.1764,-0.1599,-0.1571,-0.15,-0.1645,-0.1684,-0.1687,-0.1689,-0.169,-0.1691,-0.0832,-0.0816,-0.0832,-0.0871,-0.0938,-0.1014,-0.1035,-0.1201,-0.1326,-0.1509,-0.164,-0.1706,-0.1696,-0.1617,-0.1586,-0.148,-0.1558,-0.1438,-0.1486,-0.1524,-0.1417,-0.1476,-0.1427,-0.1428,-0.1429,-0.143,-0.1431,0,-0.0745,-0.0723,-0.0731,-0.0767,-0.08,-0.0874,-0.0994,-0.1026,-0.1132,-0.135,-0.1456,-0.1488,-0.1401,-0.1385,-0.1296,-0.1233,-0.1227,-0.121,-0.125,-0.1232,-0.1335,-0.1258,-0.1096,-0.1096,-0.1096,-0.1096,-0.1096,-0.1096,-0.0691,-0.0653,-0.0649,-0.0625,-0.0649,-0.0648,-0.0683,-0.0758,-0.0877,-0.1036,-0.1135,-0.1238,-0.1227,-0.1305,-0.1194,-0.1129,-0.1124,-0.1077,-0.1118,-0.1214,-0.1241,-0.1265,-0.1194,-0.1022,-0.1022,-0.0955,-0.0955,-0.0955]},{"header":{"parameterUnit":"m.s-1","parameterCategory":2,"la1":30.2991,"la2":30.254,"lo1":-89.0895,"lo2":-89.0444,"dy":0.0017,"dx":0.0017,"nx":28,"ny":28,"refTime":"2023-10-18T03:00:00:Z","depth":"0","parameterNumber":3,"parameterNumberName":"V-component_of_CURRENTS"},"data":[0,0,0,0,0,0,0,0,0,0,0,0,0,0,0,0,0,0,0,0,0,0,0,0,0,0,0,0,0,0,0,0,0,0,0,0,0,0,0,0,0,0,0,0,0,0,0,0,0,0,0,0,0,0,0,0,0,0,0.0573,0.0577,0,0.0886,0.0889,0.0891,0.0978,0.0978,0.0977,0.0976,0.1011,0.1012,0.1014,0,0,0,0,0,0,0,0,0,0,0,0,0,0.0283,0.0285,0.0572,0.0577,0.0582,0.0885,0.0889,0.0892,0.0978,0.0977,0.0977,0.0976,0.101,0.1012,0.1014,0,0,0,0,0,0,0,0,0,0,0,0,0,0.0471,0.0286,0.0571,0.0671,0.0684,0.0885,0.0889,0.0893,0.0978,0.0977,0.0976,0.0976,0.101,0.1012,0.1014,0.1048,0,0,0.1021,0.1022,0,0,0,0,0,0,0,0,0.046,0.048,0.0651,0.0665,0.068,0.0903,0.0801,0.0935,0.0979,0.0854,0.0976,0.0975,0.0957,0.0964,0.1012,0.105,0.1051,0.1022,0.1023,0.1024,0.1025,0,0,0,0,0,0,0,0.0446,0.0469,0.0684,0.0657,0.0674,0.0782,0.0803,0.0828,0.0892,0.0864,0.0875,0.0929,0.0961,0.101,0.1013,0.1052,0.1022,0.1024,0.1025,0.1026,0.108,0.108,0,0,0,0,0,0,0.0422,0.0455,0.0674,0.0695,0.0579,0.0787,0.0812,0.0822,0.0899,0.0916,0.093,0.0933,0.1006,0.101,0.1014,0.0997,0.1024,0.1026,0.1027,0.1079,0.108,0.108,0,0,0,0,0,0,0.0413,0.0436,0.0662,0.0595,0.0632,0.0793,0.0805,0.0829,0.0879,0.0954,0.0962,0.0955,0.1006,0.1011,0.1018,0.1,0.1027,0.1029,0.1079,0.1079,0.108,0.1,0,0,0,0,0,0,0.0403,0.043,0.04,0.0591,0.0636,0.0772,0.0808,0.0836,0.092,0.0926,0.0978,0.0982,0.1005,0.1014,0.102,0.1004,0.1031,0.1079,0.1079,0.108,0.1002,0.0997,0.0993,0,0,0,0,0,0.039,0.0391,0.0395,0.0423,0.0596,0.0775,0.0805,0.0911,0.0922,0.0947,0.0966,0.098,0.1019,0.1016,0.1023,0.1007,0.1079,0.1079,0.108,0.1005,0.0998,0.0993,0,0,0,0,0,0,0.0264,0.0407,0.0415,0.0456,0.0589,0.0793,0.0853,0.0908,0.0953,0.0947,0.098,0.0985,0.0983,0.1013,0.1009,0.1026,0.1052,0.1054,0.0993,0.0987,0.0982,0.095,0.1033,0,0,0,0,0,0.0216,0.0225,0.0406,0.0424,0.0512,0.0668,0.0743,0.0817,0.091,0.0933,0.0961,0.0985,0.0996,0.1003,0.1024,0.1035,0.107,0.1032,0.1027,0.1022,0.1002,0.1071,0.1071,0.108,0.108,0.108,0,0,0.0171,0.0248,0.0252,0.0393,0.0519,0.0615,0.0709,0.0844,0.086,0.0923,0.0928,0.0966,0.0994,0.1001,0.1004,0.1019,0.1035,0.1022,0.1018,0.1,0.1071,0.107,0.107,0.108,0.108,0.108,0,0,0.0158,0.0173,0.0219,0.0321,0.05,0.058,0.0612,0.08,0.0823,0.0856,0.0888,0.092,0.0945,0.0971,0.0981,0.0967,0.1004,0.0971,0.0919,0.0987,0.0986,0.0986,0.1009,0.1012,0.0971,0.0971,0.0971,0,0.0097,0.0158,0.0263,0.0361,0.0417,0.0553,0.0623,0.0679,0.0808,0.0806,0.0836,0.0892,0.093,0.0928,0.0924,0.0954,0.0981,0.0934,0.0979,0.098,0.0981,0.1006,0.101,0.0967,0.0968,0.0968,0.0968,0,0.0146,0.019,0.0252,0.0351,0.0413,0.0508,0.0609,0.0629,0.0655,0.0708,0.0724,0.08,0.0831,0.0857,0.088,0.09,0.0911,0.0961,0.0988,0.0975,0.1002,0.1007,0.0962,0.0963,0.0964,0.0965,0,0,0.003,0.0236,0.0247,0.0279,0.0408,0.0468,0.0467,0.0519,0.0499,0.059,0.0579,0.064,0.0702,0.072,0.078,0.0844,0.0884,0.0894,0.0899,0.0904,0.0995,0.0935,0.0936,0.0942,0.0944,0.0944,0.1002,0,0.0036,0.0171,0.0242,0.0286,0.0372,0.0416,0.0385,0.0413,0.044,0.0454,0.0541,0.0565,0.0641,0.0665,0.0738,0.085,0.0898,0.0861,0.1017,0.102,0.096,0.0941,0.0933,0.0978,0.1008,0.1009,0.101,0,0.0059,0.0136,0.0223,0.0248,0.028,0.0277,0.0223,0.0222,0.0257,0.0285,0.0345,0.0422,0.0507,0.0593,0.0763,0.0733,0.084,0.0938,0.0944,0.0916,0.0971,0.1002,0.0988,0.112,0.1019,0.1018,0.1017,0,-0.0037,0.0084,0.0119,0.0151,0.0228,0.0194,0.0168,0.0174,0.0146,0.0193,0.02,0.0316,0.0387,0.054,0.0729,0.075,0.0921,0.0986,0.1025,0.1021,0.1057,0.1054,0.1179,0.1097,0.1097,0.1097,0.1097,0,-0.0051,-0.0026,0.0078,0.0122,0.0055,0.011,0.0034,0.0029,0.0032,0.0003,0.0115,0.0152,0.0383,0.0511,0.0683,0.0849,0.0888,0.0992,0.1032,0.1025,0.1019,0.117,0.1228,0.1099,0.1099,0.1098,0.1098,0,-0.0089,-0.0005,0.0036,0.008,0.0056,0.0008,-0.0055,-0.0107,-0.0091,-0.0118,-0.0108,0.0035,0.0212,0.0411,0.0673,0.0778,0.1016,0.1004,0.0947,0.0977,0.1112,0.1164,0.1277,0.1349,0.1046,0.1045,0.1044,0,-0.0071,-0.0028,-0.0006,-0.0039,-0.0011,-0.0079,-0.0145,-0.0166,-0.0207,-0.0178,-0.0193,-0.0041,0.0088,0.0402,0.0631,0.0863,0.101,0.0958,0.0999,0.1089,0.1181,0.122,0.1278,0.1022,0.1021,0.102,0.1019,0,-0.0049,-0.0039,-0.0011,-0.0076,-0.0142,-0.0224,-0.0302,-0.035,-0.0371,-0.0354,-0.0277,-0.0164,0.0108,0.0387,0.0634,0.0784,0.1019,0.0943,0.1091,0.119,0.1192,0.129,0.0986,0.1011,0.1012,0.1013,0.1013,0.1013,-0.0064,-0.0071,-0.0059,-0.0143,-0.0229,-0.0341,-0.0398,-0.0441,-0.0473,-0.0442,-0.0344,-0.0164,0.018,0.0558,0.0713,0.0985,0.1002,0.109,0.1149,0.1184,0.1236,0.086,0.0894,0.0894,0.0894,0.0894,0.0894,0,-0.0084,-0.0098,-0.0153,-0.024,-0.0348,-0.0378,-0.0489,-0.05,-0.049,-0.0445,-0.034,0.0014,0.0343,0.0677,0.1055,0.1203,0.1279,0.1286,0.1395,0.1452,0.1181,0.1162,0.1189,0.1189,0.1189,0.1189,0.1189,0.1189,-0.0094,-0.0141,-0.0169,-0.0327,-0.0394,-0.0497,-0.0539,-0.0513,-0.0471,-0.0267,-0.008,0.0066,0.0551,0.1098,0.1457,0.1484,0.1679,0.161,0.1733,0.1599,0.1588,0.1577,0.1576,0.169,0.169,0.2005,0.2008,0.2011]}],[{"header":{"parameterUnit":"m.s-1","parameterCategory":2,"la1":30.2991,"la2":30.254,"lo1":-89.0895,"lo2":-89.0444,"dy":0.0017,"dx":0.0017,"nx":28,"ny":28,"refTime":"2023-10-18T03:00:00:Z","depth":"2","parameterNumber":2,"parameterNumberName":"U-component_of_CURRENTS"},"data":[0,0,0,0,0,0,0,0,0,0,0,0,0,0,0,0,0,0,0,0,0,0,0,0,0,0,0,0,0,0,0,0,0,0,0,0,0,0,0,0,0,0,0,0,0,0,0,0,0,0,0,0,0,0,0,0,0,0,-0.245,-0.245,0,-0.2451,-0.2452,-0.2452,-0.2425,-0.2424,-0.2424,-0.2423,-0.2368,-0.2367,-0.2366,0,0,0,0,0,0,0,0,0,0,0,0,0,-0.2521,-0.2519,-0.245,-0.245,-0.245,-0.2451,-0.2452,-0.2452,-0.2425,-0.2424,-0.2423,-0.2422,-0.2368,-0.2367,-0.2366,0,0,0,0,0,0,0,0,0,0,0,0,0,-0.2504,-0.2519,-0.245,-0.2436,-0.2435,-0.2451,-0.2452,-0.2452,-0.2425,-0.2424,-0.2423,-0.2422,-0.2368,-0.2367,-0.2366,-0.2383,0,0,-0.2363,-0.2362,0,0,0,0,0,0,0,0,-0.2505,-0.2501,-0.2438,-0.2437,-0.2436,-0.2436,-0.2457,-0.2426,-0.2426,-0.243,-0.2423,-0.2421,-0.2386,-0.2383,-0.2388,-0.238,-0.2378,-0.2363,-0.2362,-0.2361,-0.2361,0,0,0,0,0,0,0,-0.2506,-0.2501,-0.2451,-0.2438,-0.2437,-0.2463,-0.2459,-0.2451,-0.2414,-0.2429,-0.2427,-0.2427,-0.2385,-0.2389,-0.2386,-0.2377,-0.2363,-0.2362,-0.2361,-0.2361,-0.234,-0.234,0,0,0,0,0,0,-0.25,-0.2502,-0.2451,-0.2451,-0.2467,-0.2463,-0.2458,-0.2438,-0.2415,-0.2411,-0.2428,-0.2425,-0.2392,-0.2388,-0.2384,-0.2357,-0.2361,-0.236,-0.236,-0.2339,-0.234,-0.234,0,0,0,0,0,0,-0.2501,-0.2495,-0.2451,-0.2478,-0.2474,-0.2462,-0.2441,-0.2439,-0.244,-0.2414,-0.2409,-0.2431,-0.2391,-0.2386,-0.2381,-0.2356,-0.236,-0.2359,-0.2339,-0.2339,-0.234,-0.2332,0,0,0,0,0,0,-0.2503,-0.2495,-0.2487,-0.2476,-0.2472,-0.2463,-0.2442,-0.2439,-0.2441,-0.2438,-0.2415,-0.2409,-0.2389,-0.2383,-0.238,-0.2355,-0.2358,-0.2339,-0.2339,-0.234,-0.2332,-0.2332,-0.2332,0,0,0,0,0,-0.2505,-0.2501,-0.2486,-0.248,-0.2457,-0.2463,-0.2464,-0.2453,-0.2443,-0.245,-0.2434,-0.241,-0.2381,-0.2383,-0.2379,-0.2353,-0.2339,-0.2339,-0.234,-0.2333,-0.2332,-0.2332,0,0,0,0,0,0,-0.2531,-0.2497,-0.2481,-0.2465,-0.2464,-0.2458,-0.2463,-0.2459,-0.2455,-0.2449,-0.2423,-0.2417,-0.2397,-0.2389,-0.2392,-0.2349,-0.2351,-0.2351,-0.2347,-0.2347,-0.2347,-0.2347,-0.2357,0,0,0,0,0,-0.2532,-0.251,-0.2495,-0.2482,-0.248,-0.2473,-0.2476,-0.2471,-0.2464,-0.2461,-0.2443,-0.2422,-0.2398,-0.2385,-0.2369,-0.2359,-0.2367,-0.2337,-0.2337,-0.2337,-0.2336,-0.234,-0.234,-0.234,-0.234,-0.234,0,0,-0.2534,-0.2515,-0.2501,-0.2486,-0.2479,-0.2493,-0.2472,-0.2477,-0.2485,-0.2456,-0.2456,-0.2425,-0.2397,-0.2375,-0.2364,-0.2363,-0.2344,-0.2337,-0.2337,-0.2336,-0.2341,-0.2341,-0.2341,-0.2341,-0.2341,-0.2341,0,0,-0.2542,-0.2513,-0.2506,-0.2508,-0.2505,-0.2508,-0.2511,-0.2507,-0.2498,-0.2499,-0.2468,-0.2432,-0.2411,-0.2377,-0.2358,-0.2354,-0.2345,-0.2339,-0.2333,-0.2337,-0.2337,-0.2337,-0.236,-0.2362,-0.2336,-0.2336,-0.2336,0,-0.2548,-0.2534,-0.2511,-0.2518,-0.2526,-0.2517,-0.2535,-0.2532,-0.2528,-0.2519,-0.2498,-0.2447,-0.241,-0.2377,-0.2352,-0.235,-0.2361,-0.2332,-0.2336,-0.2336,-0.2336,-0.236,-0.2362,-0.2335,-0.2335,-0.2335,-0.2335,0,-0.2554,-0.2554,-0.2555,-0.2554,-0.2566,-0.2577,-0.2576,-0.2578,-0.2563,-0.2551,-0.2515,-0.2466,-0.2429,-0.2399,-0.2362,-0.2332,-0.2343,-0.2338,-0.2336,-0.2336,-0.2361,-0.2364,-0.2335,-0.2335,-0.2335,-0.2335,0,0,-0.2534,-0.2553,-0.2556,-0.257,-0.2586,-0.2598,-0.2611,-0.2616,-0.262,-0.2585,-0.258,-0.2492,-0.245,-0.2425,-0.2373,-0.2352,-0.234,-0.2331,-0.2331,-0.2352,-0.2365,-0.22,-0.2187,-0.2333,-0.2333,-0.2333,-0.2387,0,-0.2546,-0.2574,-0.2583,-0.2623,-0.2637,-0.2644,-0.2662,-0.2665,-0.2648,-0.2644,-0.2575,-0.2542,-0.2467,-0.2428,-0.2396,-0.2356,-0.2345,-0.2327,-0.2363,-0.2364,-0.2215,-0.2183,-0.2034,-0.2053,-0.239,-0.239,-0.239,0,-0.2544,-0.2567,-0.2606,-0.2653,-0.2661,-0.2688,-0.2711,-0.2718,-0.2706,-0.2686,-0.2639,-0.2598,-0.2534,-0.2481,-0.2426,-0.2418,-0.2383,-0.2359,-0.2361,-0.2207,-0.2201,-0.2105,-0.2045,-0.2395,-0.2394,-0.2394,-0.2394,0,-0.2535,-0.2583,-0.2618,-0.2632,-0.2684,-0.27,-0.2716,-0.2721,-0.2721,-0.2698,-0.2693,-0.264,-0.2595,-0.2555,-0.2443,-0.245,-0.2398,-0.2421,-0.2258,-0.2249,-0.2127,-0.2104,-0.2401,-0.2401,-0.2401,-0.24,-0.24,0,-0.2536,-0.2564,-0.2616,-0.2634,-0.2679,-0.2699,-0.2727,-0.2733,-0.2735,-0.2716,-0.2694,-0.2651,-0.2603,-0.2549,-0.2484,-0.2343,-0.2432,-0.2243,-0.2234,-0.2119,-0.2096,-0.2394,-0.2393,-0.2403,-0.2402,-0.2402,-0.2401,0,-0.2514,-0.2551,-0.2596,-0.2656,-0.2674,-0.2695,-0.2732,-0.2742,-0.2742,-0.2719,-0.2706,-0.2669,-0.2561,-0.251,-0.2437,-0.2364,-0.2277,-0.2211,-0.2071,-0.204,-0.2141,-0.2139,-0.2086,-0.208,-0.2075,-0.2071,-0.2068,0,-0.2497,-0.2506,-0.2599,-0.2627,-0.2654,-0.2685,-0.2706,-0.273,-0.2726,-0.2688,-0.267,-0.2583,-0.2426,-0.2277,-0.2152,-0.2035,-0.2123,-0.1858,-0.1819,-0.2103,-0.2102,-0.2107,-0.2112,-0.1693,-0.1687,-0.1682,-0.1678,0,-0.2446,-0.2485,-0.254,-0.2591,-0.2631,-0.2658,-0.2672,-0.2663,-0.2652,-0.2587,-0.2434,-0.2301,-0.2157,-0.1908,-0.178,-0.1703,-0.1863,-0.1746,-0.2087,-0.1757,-0.1724,-0.1726,-0.1745,-0.1632,-0.1637,-0.164,-0.1643,-0.1645,-0.2403,-0.2437,-0.2497,-0.2519,-0.2583,-0.2558,-0.2501,-0.2471,-0.2364,-0.2172,-0.2164,-0.1894,-0.186,-0.1516,-0.1412,-0.1369,-0.1499,-0.1471,-0.1491,-0.1516,-0.1421,-0.1377,-0.1206,-0.1208,-0.121,-0.1212,-0.1213,0,-0.2294,-0.2356,-0.2395,-0.2433,-0.2411,-0.2483,-0.243,-0.2259,-0.2023,-0.1903,-0.1675,-0.1395,-0.1206,-0.1198,-0.1044,-0.1001,-0.1047,-0.0978,-0.1062,-0.1105,-0.1144,-0.1036,-0.0716,-0.0715,-0.0713,-0.0712,0,0,-0.2254,-0.2216,-0.2216,-0.2167,-0.2229,-0.2125,-0.2041,-0.1778,-0.1612,-0.1278,-0.1139,-0.1108,-0.1138,-0.0927,-0.0876,-0.0772,-0.0937,-0.0732,-0.1128,-0.1269,-0.1307,-0.1419,-0.1296,0,0,0,0,0]},{"header":{"parameterUnit":"m.s-1","parameterCategory":2,"la1":30.2991,"la2":30.254,"lo1":-89.0895,"lo2":-89.0444,"dy":0.0017,"dx":0.0017,"nx":28,"ny":28,"refTime":"2023-10-18T03:00:00:Z","depth":"2","parameterNumber":3,"parameterNumberName":"V-component_of_CURRENTS"},"data":[0,0,0,0,0,0,0,0,0,0,0,0,0,0,0,0,0,0,0,0,0,0,0,0,0,0,0,0,0,0,0,0,0,0,0,0,0,0,0,0,0,0,0,0,0,0,0,0,0,0,0,0,0,0,0,0,0,0,-0.0393,-0.0392,0,-0.0343,-0.0342,-0.0341,-0.0339,-0.034,-0.034,-0.0341,-0.0271,-0.0268,-0.0266,0,0,0,0,0,0,0,0,0,0,0,0,0,-0.0399,-0.0399,-0.0393,-0.0392,-0.0392,-0.0343,-0.0342,-0.0341,-0.0339,-0.034,-0.034,-0.0341,-0.0272,-0.0269,-0.0266,0,0,0,0,0,0,0,0,0,0,0,0,0,-0.0376,-0.0399,-0.0393,-0.0386,-0.0385,-0.0343,-0.0342,-0.0341,-0.0338,-0.034,-0.0341,-0.0342,-0.0273,-0.0269,-0.0265,-0.0219,0,0,-0.0253,-0.0252,0,0,0,0,0,0,0,0,-0.0377,-0.0376,-0.0388,-0.0386,-0.0385,-0.035,-0.0318,-0.03,-0.0338,-0.0354,-0.0341,-0.0342,-0.0295,-0.029,-0.0276,-0.0216,-0.0213,-0.0253,-0.0251,-0.0249,-0.0248,0,0,0,0,0,0,0,-0.0379,-0.0377,-0.0371,-0.0387,-0.0386,-0.0355,-0.0354,-0.0314,-0.0318,-0.0353,-0.0353,-0.035,-0.0295,-0.028,-0.0274,-0.0212,-0.0253,-0.025,-0.0247,-0.0246,-0.0154,-0.0154,0,0,0,0,0,0,-0.0392,-0.0379,-0.0373,-0.037,-0.0386,-0.0355,-0.0353,-0.0359,-0.0319,-0.0314,-0.0349,-0.035,-0.0286,-0.0279,-0.0272,-0.0263,-0.0249,-0.0246,-0.0243,-0.0154,-0.0154,-0.0154,0,0,0,0,0,0,-0.0392,-0.0392,-0.0375,-0.0374,-0.037,-0.0355,-0.036,-0.0357,-0.0358,-0.0316,-0.0311,-0.0355,-0.0286,-0.0277,-0.0251,-0.0258,-0.0244,-0.024,-0.0154,-0.0154,-0.0154,-0.0214,0,0,0,0,0,0,-0.0393,-0.0393,-0.0402,-0.0375,-0.0371,-0.0359,-0.0359,-0.0355,-0.0354,-0.0355,-0.0319,-0.0313,-0.0286,-0.0257,-0.0248,-0.0253,-0.0237,-0.0154,-0.0154,-0.0154,-0.0212,-0.0216,-0.0219,0,0,0,0,0,-0.0393,-0.041,-0.0402,-0.0402,-0.0384,-0.0359,-0.0354,-0.0344,-0.0353,-0.035,-0.0332,-0.0315,-0.0249,-0.0254,-0.0243,-0.0247,-0.0154,-0.0154,-0.0154,-0.021,-0.0215,-0.0219,0,0,0,0,0,0,-0.0417,-0.041,-0.0402,-0.0415,-0.039,-0.036,-0.0364,-0.0352,-0.0334,-0.0344,-0.0308,-0.0299,-0.0285,-0.0251,-0.0257,-0.0218,-0.02,-0.0197,-0.0247,-0.0251,-0.0254,-0.0249,-0.0234,0,0,0,0,0,-0.0425,-0.0437,-0.0412,-0.0419,-0.0416,-0.039,-0.0381,-0.0372,-0.0352,-0.0346,-0.0321,-0.0294,-0.0269,-0.0251,-0.0224,-0.0192,-0.0128,-0.0187,-0.0191,-0.0194,-0.0182,-0.0089,-0.0083,-0.0152,-0.0152,-0.0152,0,0,-0.0433,-0.0433,-0.0437,-0.0425,-0.0412,-0.0402,-0.0388,-0.0384,-0.0375,-0.0339,-0.0331,-0.0309,-0.0266,-0.0244,-0.0232,-0.0217,-0.0142,-0.0194,-0.0197,-0.0182,-0.0088,-0.0081,-0.0075,-0.0152,-0.0152,-0.0152,0,0,-0.0459,-0.046,-0.0478,-0.0459,-0.0444,-0.0424,-0.0427,-0.0402,-0.0396,-0.0374,-0.0357,-0.0333,-0.0291,-0.0259,-0.0237,-0.0235,-0.017,-0.0236,-0.0238,-0.015,-0.0143,-0.0136,-0.0051,-0.0036,-0.0228,-0.0228,-0.0228,0,-0.0472,-0.0486,-0.0475,-0.0478,-0.0468,-0.0439,-0.0441,-0.0421,-0.0389,-0.0379,-0.0383,-0.0321,-0.0293,-0.0252,-0.0258,-0.0243,-0.018,-0.0232,-0.0153,-0.0145,-0.0137,-0.0051,-0.0034,-0.0231,-0.0231,-0.0231,-0.023,0,-0.0502,-0.0507,-0.0516,-0.0512,-0.0496,-0.0493,-0.0463,-0.0454,-0.0446,-0.0417,-0.039,-0.0346,-0.0304,-0.0299,-0.0278,-0.0216,-0.0188,-0.0177,-0.0145,-0.0134,-0.0044,-0.0025,-0.0235,-0.0234,-0.0233,-0.0233,0,0,-0.0552,-0.0542,-0.0545,-0.0543,-0.0515,-0.0508,-0.0496,-0.0469,-0.0461,-0.0427,-0.0402,-0.0363,-0.0337,-0.0309,-0.0279,-0.0204,-0.0104,-0.0169,-0.0163,-0.0087,0.01,0.0029,0.0044,-0.0079,-0.0076,-0.0073,0.0138,0,-0.058,-0.0597,-0.058,-0.0581,-0.0584,-0.0548,-0.0536,-0.0506,-0.0475,-0.044,-0.0388,-0.0355,-0.034,-0.0323,-0.0247,-0.0139,-0.0055,-0.0162,0.0081,0.0089,0.0023,0.0063,0.0036,0.0214,0.0157,0.0161,0.0163,0,-0.0621,-0.0623,-0.064,-0.0618,-0.0619,-0.0615,-0.0591,-0.057,-0.0507,-0.048,-0.0426,-0.0378,-0.0279,-0.0271,-0.0059,-0.0127,-0.0016,0.0071,0.0081,0.0053,0.0054,0.0196,0.0251,0.0196,0.0193,0.0191,0.0189,0,-0.0675,-0.0666,-0.0685,-0.0676,-0.0648,-0.0657,-0.0642,-0.0594,-0.0574,-0.0498,-0.0464,-0.0351,-0.0275,-0.0132,0.0024,0.0002,0.0265,0.0261,0.0308,0.0305,0.0349,0.0343,0.0425,0.0425,0.0425,0.0424,0.0423,0,-0.0716,-0.0732,-0.0717,-0.0725,-0.0745,-0.0707,-0.0713,-0.0681,-0.0619,-0.0573,-0.0489,-0.0418,-0.0231,-0.0077,0.0053,0.0236,0.0298,0.0325,0.0359,0.0323,0.0313,0.0346,0.0334,0.0432,0.043,0.0429,0.0427,0,-0.0782,-0.077,-0.0792,-0.0777,-0.0778,-0.0797,-0.0772,-0.0764,-0.0692,-0.0622,-0.0595,-0.0425,-0.0236,-0.0066,0.0195,0.0279,0.0449,0.0498,0.043,0.0449,0.043,0.0413,0.0591,0.059,0.059,0.0589,0.0589,0,-0.082,-0.0833,-0.0847,-0.087,-0.0874,-0.0885,-0.0891,-0.0824,-0.0788,-0.0622,-0.0581,-0.0393,-0.0292,0.003,0.0237,0.0448,0.0464,0.0546,0.0478,0.0435,0.0451,0.0433,0.0417,0.0538,0.0537,0.0536,0.0536,0,-0.0878,-0.0891,-0.0914,-0.0962,-0.0985,-0.0984,-0.0967,-0.094,-0.0824,-0.0747,-0.061,-0.0528,-0.024,-0.0018,0.0243,0.0361,0.0494,0.0533,0.0572,0.0451,0.0388,0.04,0.0387,0.053,0.0531,0.0531,0.0531,0.0532,-0.0931,-0.0968,-0.1007,-0.1051,-0.1077,-0.1068,-0.1053,-0.0995,-0.0925,-0.0759,-0.0654,-0.0487,-0.0266,0.0075,0.0262,0.0458,0.0449,0.0514,0.0517,0.052,0.0426,0.0361,0.0483,0.0483,0.0483,0.0484,0.0484,0,-0.097,-0.1026,-0.1083,-0.1126,-0.116,-0.1147,-0.1092,-0.1039,-0.0947,-0.0768,-0.0652,-0.0415,-0.0181,0.0052,0.0341,0.0475,0.0488,0.05,0.0512,0.0515,0.0518,0.0425,0.0483,0.0483,0.0484,0.0484,0,0,-0.0998,-0.1057,-0.1086,-0.1174,-0.1211,-0.1212,-0.1169,-0.1061,-0.0917,-0.0756,-0.0592,-0.0409,-0.0154,0.0061,0.024,0.0385,0.0414,0.0388,0.0371,0.0366,0.0369,0.0504,0.0359,0,0,0,0,0]}],[{"header":{"parameterUnit":"m.s-1","parameterCategory":2,"la1":30.2991,"la2":30.254,"lo1":-89.0895,"lo2":-89.0444,"dy":0.0017,"dx":0.0017,"nx":28,"ny":28,"refTime":"2023-10-18T03:00:00:Z","depth":"4","parameterNumber":2,"parameterNumberName":"U-component_of_CURRENTS"},"data":[0,0,0,0,0,0,0,0,0,0,0,0,0,0,0,0,0,0,0,0,0,0,0,0,0,0,0,0,0,0,0,0,0,0,0,0,0,0,0,0,0,0,0,0,0,0,0,0,0,0,0,0,0,0,0,0,0,0,-0.1113,-0.1113,0,-0.1159,-0.116,-0.116,-0.1188,-0.1188,-0.1188,-0.1188,-0.1221,-0.1221,-0.1222,0,0,0,0,0,0,0,0,0,0,0,0,0,-0.1004,-0.1006,-0.1113,-0.1113,-0.1114,-0.1159,-0.116,-0.116,-0.1188,-0.1188,-0.1188,-0.1188,-0.1221,-0.1221,-0.1222,0,0,0,0,0,0,0,0,0,0,0,0,0,-0.105,-0.1006,-0.1112,-0.1134,-0.1136,-0.1159,-0.116,-0.116,-0.1188,-0.1188,-0.1188,-0.1188,-0.122,-0.1221,-0.1222,-0.1223,0,0,-0.1226,-0.1226,0,0,0,0,0,0,0,0,-0.1047,-0.1054,-0.113,-0.1132,-0.1135,-0.1168,-0.1133,-0.1181,-0.1188,-0.1167,-0.1188,-0.1189,-0.1202,-0.1205,-0.1212,-0.1225,-0.1226,-0.1226,-0.1226,-0.1227,-0.1227,0,0,0,0,0,0,0,-0.1044,-0.1052,-0.113,-0.113,-0.1134,-0.1126,-0.1133,-0.1142,-0.1182,-0.1169,-0.1171,-0.1178,-0.1204,-0.1211,-0.1213,-0.1227,-0.1226,-0.1227,-0.1227,-0.1228,-0.1297,-0.1298,0,0,0,0,0,0,-0.1042,-0.1049,-0.1129,-0.1132,-0.1092,-0.1128,-0.1136,-0.1157,-0.1182,-0.1187,-0.1177,-0.1179,-0.1209,-0.1212,-0.1214,-0.1277,-0.1227,-0.1228,-0.1228,-0.1296,-0.1297,-0.1299,0,0,0,0,0,0,-0.104,-0.105,-0.1127,-0.1091,-0.11,-0.113,-0.1153,-0.1158,-0.1188,-0.1189,-0.1193,-0.1205,-0.121,-0.1213,-0.1247,-0.1276,-0.1228,-0.1229,-0.1295,-0.1296,-0.1298,-0.1364,0,0,0,0,0,0,-0.1037,-0.1049,-0.1072,-0.1091,-0.1102,-0.1156,-0.1153,-0.1158,-0.119,-0.1193,-0.1213,-0.1215,-0.121,-0.1246,-0.1248,-0.1277,-0.123,-0.1293,-0.1295,-0.1298,-0.136,-0.1367,-0.1374,0,0,0,0,0,-0.1033,-0.1057,-0.1074,-0.1084,-0.1132,-0.1157,-0.1163,-0.1182,-0.1191,-0.121,-0.1227,-0.1216,-0.1262,-0.1248,-0.125,-0.128,-0.1292,-0.1295,-0.1297,-0.1357,-0.1366,-0.1374,0,0,0,0,0,0,-0.1013,-0.1063,-0.1081,-0.1119,-0.1145,-0.1163,-0.1183,-0.1197,-0.1225,-0.1233,-0.1234,-0.1238,-0.1275,-0.127,-0.1254,-0.1306,-0.1274,-0.1277,-0.1318,-0.1327,-0.1334,-0.1306,-0.1231,0,0,0,0,0,-0.1023,-0.1065,-0.1096,-0.113,-0.1145,-0.117,-0.1187,-0.1201,-0.1223,-0.1237,-0.1251,-0.1266,-0.1285,-0.1301,-0.1309,-0.1342,-0.1327,-0.1361,-0.1368,-0.1374,-0.1353,-0.138,-0.1387,-0.1308,-0.1308,-0.1308,0,0,-0.1024,-0.1058,-0.1081,-0.113,-0.1153,-0.1178,-0.1182,-0.1213,-0.1237,-0.1235,-0.1277,-0.129,-0.1298,-0.1334,-0.135,-0.1337,-0.1391,-0.1378,-0.1383,-0.1358,-0.1383,-0.1391,-0.1398,-0.131,-0.1309,-0.1309,0,0,-0.1039,-0.1079,-0.1116,-0.1142,-0.1185,-0.1198,-0.1213,-0.1244,-0.1265,-0.1303,-0.131,-0.1346,-0.1369,-0.1388,-0.1398,-0.1449,-0.1424,-0.1452,-0.1472,-0.1499,-0.1505,-0.1511,-0.1509,-0.1514,-0.1461,-0.1461,-0.1461,0,-0.1041,-0.1091,-0.1127,-0.1162,-0.1184,-0.121,-0.1238,-0.1262,-0.1301,-0.1314,-0.1323,-0.1376,-0.1394,-0.1438,-0.1454,-0.1466,-0.1459,-0.1443,-0.1508,-0.1513,-0.1517,-0.1514,-0.1519,-0.1464,-0.1464,-0.1463,-0.1463,0,-0.1075,-0.1119,-0.1139,-0.1198,-0.1224,-0.1253,-0.1284,-0.1313,-0.1339,-0.1354,-0.1404,-0.1437,-0.1467,-0.1488,-0.1486,-0.153,-0.1508,-0.1513,-0.1486,-0.1529,-0.1523,-0.1527,-0.1469,-0.1468,-0.1467,-0.1466,0,0,-0.1065,-0.115,-0.1159,-0.1189,-0.1246,-0.1265,-0.1307,-0.1342,-0.1371,-0.1409,-0.1445,-0.1495,-0.151,-0.1521,-0.1542,-0.1564,-0.1605,-0.1547,-0.1547,-0.1542,-0.1639,-0.1513,-0.1504,-0.1621,-0.1622,-0.1623,-0.1625,0,-0.1082,-0.115,-0.1189,-0.124,-0.127,-0.1305,-0.1341,-0.1374,-0.1409,-0.1446,-0.1481,-0.1529,-0.1526,-0.1564,-0.1582,-0.1604,-0.1614,-0.1602,-0.1598,-0.1597,-0.1478,-0.1504,-0.1626,-0.1627,-0.1628,-0.1628,-0.1629,0,-0.1095,-0.1141,-0.12,-0.1264,-0.1281,-0.1315,-0.137,-0.1406,-0.1453,-0.1483,-0.1524,-0.1553,-0.1605,-0.16,-0.164,-0.163,-0.1626,-0.1632,-0.1633,-0.1484,-0.1476,-0.1573,-0.1634,-0.1634,-0.1633,-0.1633,-0.1633,0,-0.106,-0.1141,-0.119,-0.1214,-0.129,-0.1322,-0.136,-0.1414,-0.1442,-0.1515,-0.1534,-0.1599,-0.1619,-0.1656,-0.1649,-0.1663,-0.1657,-0.1694,-0.1567,-0.1559,-0.1644,-0.1638,-0.1699,-0.1699,-0.1699,-0.1699,-0.1699,0,-0.1051,-0.109,-0.1182,-0.1208,-0.1257,-0.1313,-0.1369,-0.1411,-0.1469,-0.1469,-0.1552,-0.1551,-0.1627,-0.1626,-0.1651,-0.1591,-0.1665,-0.1552,-0.1548,-0.1672,-0.167,-0.1646,-0.164,-0.1699,-0.1699,-0.1699,-0.1699,0,-0.1002,-0.1072,-0.1124,-0.1214,-0.1245,-0.1276,-0.1363,-0.1385,-0.1454,-0.1457,-0.1481,-0.1514,-0.1518,-0.1561,-0.1592,-0.1555,-0.1557,-0.1508,-0.1604,-0.1608,-0.1449,-0.1447,-0.1414,-0.1409,-0.1406,-0.1402,-0.14,0,-0.0986,-0.1011,-0.111,-0.1137,-0.1184,-0.1248,-0.1277,-0.1366,-0.1376,-0.1399,-0.1372,-0.1391,-0.1401,-0.1348,-0.1411,-0.1451,-0.1429,-0.1417,-0.1461,-0.1419,-0.1419,-0.1423,-0.1425,-0.1394,-0.1393,-0.1392,-0.1391,0,-0.0941,-0.0984,-0.1025,-0.1067,-0.1112,-0.1161,-0.1207,-0.1206,-0.1256,-0.1324,-0.1253,-0.1254,-0.1216,-0.1257,-0.1257,-0.129,-0.1442,-0.1378,-0.1388,-0.143,-0.1394,-0.1399,-0.1406,-0.1377,-0.1379,-0.138,-0.1381,0,-0.09,-0.0908,-0.0954,-0.0981,-0.1027,-0.1035,-0.1088,-0.1085,-0.1114,-0.1143,-0.1098,-0.1124,-0.1162,-0.1166,-0.1179,-0.1193,-0.1215,-0.1207,-0.1227,-0.1242,-0.1187,-0.1117,-0.0996,0,0,0,0,0,-0.0847,-0.0845,-0.086,-0.0884,-0.0914,-0.0945,-0.1007,-0.1055,-0.1096,-0.1017,-0.1065,-0.1039,-0.1033,-0.1062,-0.1053,-0.1128,-0.1228,-0.1111,-0.1232,-0.1304,-0.1319,-0.1271,0,0,0,0,0,0,-0.0815,-0.0832,-0.0829,-0.0783,-0.0773,-0.08,-0.084,-0.0878,-0.0864,-0.0911,-0.0932,-0.0974,-0.1013,-0.1022,-0.1025,-0.1038,-0.1095,-0.1151,-0.1148,-0.1295,-0.1309,-0.1321,-0.1277,0,0,0,0,0]},{"header":{"parameterUnit":"m.s-1","parameterCategory":2,"la1":30.2991,"la2":30.254,"lo1":-89.0895,"lo2":-89.0444,"dy":0.0017,"dx":0.0017,"nx":28,"ny":28,"refTime":"2023-10-18T03:00:00:Z","depth":"4","parameterNumber":3,"parameterNumberName":"V-component_of_CURRENTS"},"data":[0,0,0,0,0,0,0,0,0,0,0,0,0,0,0,0,0,0,0,0,0,0,0,0,0,0,0,0,0,0,0,0,0,0,0,0,0,0,0,0,0,0,0,0,0,0,0,0,0,0,0,0,0,0,0,0,0,0,-0.0184,-0.0184,0,-0.0148,-0.0148,-0.0147,-0.0142,-0.0142,-0.0142,-0.0143,-0.0086,-0.0085,-0.0083,0,0,0,0,0,0,0,0,0,0,0,0,0,-0.0217,-0.0216,-0.0184,-0.0184,-0.0183,-0.0148,-0.0148,-0.0147,-0.0142,-0.0142,-0.0143,-0.0143,-0.0087,-0.0085,-0.0083,0,0,0,0,0,0,0,0,0,0,0,0,0,-0.0194,-0.0216,-0.0184,-0.0176,-0.0175,-0.0148,-0.0148,-0.0147,-0.0142,-0.0142,-0.0143,-0.0143,-0.0088,-0.0085,-0.0082,-0.0057,0,0,-0.0074,-0.0073,0,0,0,0,0,0,0,0,-0.0195,-0.0193,-0.0178,-0.0177,-0.0175,-0.015,-0.0138,-0.0116,-0.0142,-0.0155,-0.0143,-0.0143,-0.0105,-0.0101,-0.0094,-0.0055,-0.0052,-0.0074,-0.0072,-0.0071,-0.007,0,0,0,0,0,0,0,-0.0197,-0.0194,-0.017,-0.0177,-0.0176,-0.0163,-0.0161,-0.0134,-0.0128,-0.0154,-0.0153,-0.0148,-0.0104,-0.0097,-0.0093,-0.0051,-0.0074,-0.0072,-0.007,-0.0069,-0.003,-0.003,0,0,0,0,0,0,-0.0202,-0.0196,-0.0172,-0.0169,-0.0186,-0.0162,-0.016,-0.0158,-0.0129,-0.0125,-0.0148,-0.0148,-0.0101,-0.0096,-0.0091,-0.0097,-0.0071,-0.0069,-0.0067,-0.0029,-0.003,-0.003,0,0,0,0,0,0,-0.0203,-0.02,-0.0173,-0.0181,-0.0177,-0.0162,-0.0159,-0.0157,-0.0152,-0.0124,-0.012,-0.0146,-0.0101,-0.0094,-0.0079,-0.0093,-0.0068,-0.0065,-0.0028,-0.0029,-0.003,-0.0084,0,0,0,0,0,0,-0.0204,-0.0201,-0.02,-0.0182,-0.0177,-0.0162,-0.0159,-0.0156,-0.0148,-0.0148,-0.0121,-0.0116,-0.0101,-0.0083,-0.0076,-0.0089,-0.0063,-0.0028,-0.0029,-0.003,-0.0082,-0.0087,-0.0091,0,0,0,0,0,-0.0205,-0.0201,-0.02,-0.0197,-0.0177,-0.0162,-0.0158,-0.0149,-0.0147,-0.0146,-0.0134,-0.0117,-0.0085,-0.0081,-0.0073,-0.0085,-0.0027,-0.0028,-0.003,-0.008,-0.0086,-0.0091,0,0,0,0,0,0,-0.0212,-0.0199,-0.0198,-0.019,-0.018,-0.0161,-0.0155,-0.0149,-0.0138,-0.0138,-0.0117,-0.0111,-0.0107,-0.0084,-0.0081,-0.0078,-0.0056,-0.0055,-0.0096,-0.0102,-0.0107,-0.0126,-0.0061,0,0,0,0,0,-0.0214,-0.0209,-0.0196,-0.0189,-0.0185,-0.0171,-0.0163,-0.0158,-0.0145,-0.0141,-0.0125,-0.0111,-0.0104,-0.0094,-0.008,-0.0069,-0.006,-0.0073,-0.0078,-0.0082,-0.0094,-0.0094,-0.01,-0.0034,-0.0034,-0.0034,0,0,-0.0214,-0.0206,-0.0203,-0.0191,-0.0182,-0.0187,-0.0168,-0.0158,-0.017,-0.0135,-0.0141,-0.0124,-0.0105,-0.0104,-0.0099,-0.0087,-0.0096,-0.0084,-0.0088,-0.0097,-0.0096,-0.0102,-0.0108,-0.0035,-0.0035,-0.0035,0,0,-0.0217,-0.0207,-0.0209,-0.0206,-0.0196,-0.019,-0.019,-0.0176,-0.0178,-0.0175,-0.0164,-0.0158,-0.0133,-0.0133,-0.0127,-0.0146,-0.0123,-0.0137,-0.0173,-0.0174,-0.0179,-0.0184,-0.0183,-0.0187,-0.0137,-0.0137,-0.0138,0,-0.022,-0.0226,-0.0206,-0.0213,-0.0219,-0.0198,-0.0213,-0.0208,-0.0194,-0.0203,-0.0185,-0.0176,-0.0153,-0.017,-0.0178,-0.0158,-0.0152,-0.0154,-0.0181,-0.0186,-0.019,-0.0187,-0.0191,-0.014,-0.014,-0.014,-0.0139,0,-0.0229,-0.024,-0.024,-0.025,-0.0252,-0.0256,-0.0255,-0.0258,-0.0254,-0.0253,-0.0262,-0.0234,-0.0232,-0.0223,-0.0204,-0.0225,-0.021,-0.0189,-0.0169,-0.02,-0.0194,-0.0198,-0.0144,-0.0143,-0.0142,-0.0142,0,0,-0.0224,-0.0246,-0.0248,-0.0274,-0.0276,-0.0284,-0.0302,-0.0319,-0.0343,-0.0324,-0.0353,-0.0334,-0.0316,-0.0309,-0.0284,-0.028,-0.0297,-0.0248,-0.0247,-0.0252,-0.0298,-0.0208,-0.0202,-0.028,-0.0281,-0.0281,-0.0283,0,-0.0244,-0.0278,-0.028,-0.0325,-0.0349,-0.0348,-0.0372,-0.0385,-0.0387,-0.0406,-0.0385,-0.0394,-0.035,-0.0348,-0.034,-0.0308,-0.0308,-0.0298,-0.0263,-0.0263,-0.0183,-0.0204,-0.0284,-0.0285,-0.0286,-0.0287,-0.0287,0,-0.026,-0.0286,-0.0332,-0.0386,-0.0395,-0.0418,-0.0463,-0.0479,-0.0495,-0.0496,-0.0496,-0.0476,-0.047,-0.0425,-0.0395,-0.039,-0.0354,-0.0325,-0.0324,-0.0225,-0.0178,-0.0247,-0.0293,-0.0292,-0.0292,-0.0291,-0.0291,0,-0.0283,-0.0329,-0.0373,-0.0388,-0.0434,-0.0462,-0.0484,-0.0509,-0.0535,-0.0551,-0.0564,-0.0553,-0.0546,-0.0503,-0.0422,-0.0418,-0.0381,-0.0367,-0.0259,-0.0252,-0.031,-0.0305,-0.0359,-0.0359,-0.0359,-0.0359,-0.0359,0,-0.031,-0.035,-0.0391,-0.0417,-0.0482,-0.0496,-0.0557,-0.0574,-0.0601,-0.0631,-0.0608,-0.0617,-0.0565,-0.0525,-0.0455,-0.0353,-0.0404,-0.0272,-0.0247,-0.0332,-0.0329,-0.0312,-0.0307,-0.0359,-0.0359,-0.0359,-0.0359,0,-0.0334,-0.0356,-0.0419,-0.0475,-0.0497,-0.0542,-0.0603,-0.0641,-0.0654,-0.069,-0.0696,-0.0681,-0.0611,-0.0536,-0.0465,-0.0388,-0.0304,-0.0257,-0.0353,-0.0333,-0.0176,-0.0173,-0.016,-0.0156,-0.0154,-0.0151,-0.015,0,-0.035,-0.0382,-0.046,-0.0502,-0.0532,-0.0595,-0.0635,-0.0667,-0.0692,-0.0715,-0.0725,-0.0685,-0.0648,-0.0489,-0.0404,-0.0264,-0.0231,-0.0203,-0.0193,-0.0179,-0.0156,-0.0158,-0.0159,-0.0145,-0.0145,-0.0144,-0.0143,0,-0.0385,-0.0411,-0.0461,-0.0542,-0.0599,-0.0664,-0.0711,-0.073,-0.075,-0.0767,-0.0733,-0.0655,-0.0571,-0.0457,-0.0337,-0.0238,-0.023,-0.0175,-0.0181,-0.017,-0.0161,-0.0142,-0.0146,-0.0134,-0.0135,-0.0136,-0.0137,0,-0.0409,-0.0451,-0.051,-0.0582,-0.0655,-0.0706,-0.0733,-0.0742,-0.0761,-0.0753,-0.0741,-0.0653,-0.0617,-0.0442,-0.0333,-0.0214,-0.0189,-0.0164,-0.017,-0.0179,-0.0162,-0.0152,-0.0108,0,0,0,0,0,-0.0429,-0.0474,-0.0545,-0.0623,-0.0692,-0.0728,-0.0772,-0.0782,-0.0785,-0.0752,-0.074,-0.0645,-0.0476,-0.0421,-0.0284,-0.0285,-0.0176,-0.0122,-0.0152,-0.0082,-0.0093,-0.0059,0,0,0,0,0,0,-0.0446,-0.0511,-0.0545,-0.0635,-0.0687,-0.0757,-0.0783,-0.0786,-0.0752,-0.074,-0.0649,-0.0604,-0.0441,-0.055,-0.0282,-0.0249,-0.0246,-0.0048,-0.0044,-0.0076,-0.0086,-0.0095,-0.0063,0,0,0,0,0]}]]